Time,TemperatureF,DewpointF,PressureIn,WindDirection,WindDirectionDegrees,WindSpeedMPH,WindSpeedGustMPH,Humidity,HourlyPrecipIn,Conditions,Clouds,dailyrainin,SoftwareType,DateUTC
2013-10-15 00:01:00,33.6,15.1,30.26,WSW,239,0.0,0.0,46,0.00,,---,0.00,VWS V14.01,2013-10-15 06:01:00,
2013-10-15 00:06:00,33.3,15.2,30.26,WSW,239,0.0,0.0,47,0.00,,---,0.00,VWS V14.01,2013-10-15 06:06:00,
2013-10-15 00:11:00,32.9,14.9,30.29,WSW,239,0.0,0.0,47,0.00,,---,0.00,VWS V14.01,2013-10-15 06:11:00,
2013-10-15 00:16:00,32.5,14.6,30.29,WSW,239,0.0,0.0,47,0.00,,---,0.00,VWS V14.01,2013-10-15 06:16:00,
2013-10-15 00:21:00,32.0,14.1,30.29,WSW,239,0.0,0.0,47,0.00,,---,0.00,VWS V14.01,2013-10-15 06:21:00,
2013-10-15 00:26:00,31.6,13.7,30.29,WSW,239,0.0,0.0,47,0.00,,---,0.00,VWS V14.01,2013-10-15 06:26:00,
2013-10-15 00:31:00,31.5,14.1,30.29,WSW,239,0.0,0.0,48,0.00,,---,0.00,VWS V14.01,2013-10-15 06:31:00,
2013-10-15 00:36:00,31.3,13.9,30.29,WSW,239,0.0,0.0,48,0.00,,---,0.00,VWS V14.01,2013-10-15 06:36:00,
2013-10-15 00:41:00,31.3,14.8,30.29,SSW,199,0.0,0.0,50,0.00,,---,0.00,VWS V14.01,2013-10-15 06:41:00,
2013-10-15 00:46:00,31.6,15.6,30.29,SSW,199,0.0,0.0,51,0.00,,---,0.00,VWS V14.01,2013-10-15 06:46:00,
2013-10-15 00:51:00,31.5,15.4,30.29,SSW,199,0.0,0.0,51,0.00,,---,0.00,VWS V14.01,2013-10-15 06:51:00,
2013-10-15 00:56:00,30.9,14.5,30.26,SSW,199,0.0,0.0,50,0.00,,---,0.00,VWS V14.01,2013-10-15 06:56:00,
2013-10-15 01:01:00,30.4,14.0,30.26,SSW,199,0.0,0.0,50,0.00,,---,0.00,VWS V14.01,2013-10-15 07:01:00,
2013-10-15 01:06:00,30.0,13.6,30.26,SSW,199,0.0,0.0,50,0.00,,---,0.00,VWS V14.01,2013-10-15 07:06:00,
2013-10-15 01:11:00,29.8,13.9,30.26,SSW,206,0.0,0.0,51,0.00,,---,0.00,VWS V14.01,2013-10-15 07:11:00,
2013-10-15 01:16:00,29.5,13.6,30.26,SSW,206,0.0,0.0,51,0.00,,---,0.00,VWS V14.01,2013-10-15 07:16:00,
2013-10-15 01:21:00,29.5,13.6,30.26,SSW,206,0.0,0.0,51,0.00,,---,0.00,VWS V14.01,2013-10-15 07:21:00,
2013-10-15 01:26:00,29.7,14.2,30.26,SSW,206,0.0,0.0,52,0.00,,---,0.00,VWS V14.01,2013-10-15 07:26:00,
2013-10-15 01:31:00,29.7,14.2,30.26,SSW,206,0.0,0.0,52,0.00,,---,0.00,VWS V14.01,2013-10-15 07:31:00,
2013-10-15 01:36:00,29.5,14.0,30.26,SSW,206,0.0,0.0,52,0.00,,---,0.00,VWS V14.01,2013-10-15 07:36:00,
2013-10-15 01:41:00,29.7,14.2,30.26,SSW,206,0.0,0.0,52,0.00,,---,0.00,VWS V14.01,2013-10-15 07:41:00,
2013-10-15 01:46:00,29.8,14.8,30.26,South,170,0.0,2.2,53,0.00,,---,0.00,VWS V14.01,2013-10-15 07:46:00,
2013-10-15 01:51:00,29.7,14.6,30.26,South,172,0.0,2.2,53,0.00,,---,0.00,VWS V14.01,2013-10-15 07:51:00,
2013-10-15 01:56:00,29.7,14.6,30.26,South,180,0.0,2.2,53,0.00,,---,0.00,VWS V14.01,2013-10-15 07:56:00,
2013-10-15 02:01:00,29.7,14.6,30.26,South,178,0.0,0.0,53,0.00,,---,0.00,VWS V14.01,2013-10-15 08:01:00,
2013-10-15 02:06:00,29.7,15.5,30.26,South,188,2.2,4.0,55,0.00,,---,0.00,VWS V14.01,2013-10-15 08:06:00,
2013-10-15 02:11:00,29.5,14.9,30.29,SW,227,0.0,4.0,54,0.00,,---,0.00,VWS V14.01,2013-10-15 08:11:00,
2013-10-15 02:16:00,29.5,15.3,30.29,South,184,2.7,3.1,55,0.00,,---,0.00,VWS V14.01,2013-10-15 08:16:00,
2013-10-15 02:21:00,29.1,14.6,30.29,South,184,0.0,3.1,54,0.00,,---,0.00,VWS V14.01,2013-10-15 08:21:00,
2013-10-15 02:26:00,28.9,14.4,30.29,South,184,0.0,3.1,54,0.00,,---,0.00,VWS V14.01,2013-10-15 08:26:00,
2013-10-15 02:31:00,28.9,14.4,30.29,South,184,0.0,0.0,54,0.00,,---,0.00,VWS V14.01,2013-10-15 08:31:00,
2013-10-15 02:36:00,28.8,14.2,30.29,South,184,0.0,0.0,54,0.00,,---,0.00,VWS V14.01,2013-10-15 08:36:00,
2013-10-15 02:41:00,28.6,14.1,30.29,South,184,0.0,0.0,54,0.00,,---,0.00,VWS V14.01,2013-10-15 08:41:00,
2013-10-15 02:46:00,28.6,14.1,30.29,South,184,0.0,0.0,54,0.00,,---,0.00,VWS V14.01,2013-10-15 08:46:00,
2013-10-15 02:50:00,28.6,14.1,30.29,South,184,0.0,0.0,54,0.00,,---,0.00,VWS V14.01,2013-10-15 08:50:00,
2013-10-15 02:55:00,28.6,14.5,30.29,South,184,0.0,0.0,55,0.00,,---,0.00,VWS V14.01,2013-10-15 08:55:00,
2013-10-15 03:00:00,28.0,14.0,30.29,South,184,0.0,0.0,55,0.00,,---,0.00,VWS V14.01,2013-10-15 09:00:00,
2013-10-15 03:05:00,27.5,13.5,30.29,South,184,0.0,0.0,55,0.00,,---,0.00,VWS V14.01,2013-10-15 09:05:00,
2013-10-15 03:10:00,27.1,13.1,30.29,South,184,0.0,0.0,55,0.00,,---,0.00,VWS V14.01,2013-10-15 09:10:00,
2013-10-15 03:15:00,27.0,13.0,30.29,South,184,0.0,0.0,55,0.00,,---,0.00,VWS V14.01,2013-10-15 09:15:00,
2013-10-15 03:20:00,27.0,13.4,30.29,South,179,0.0,0.0,56,0.00,,---,0.00,VWS V14.01,2013-10-15 09:20:00,
2013-10-15 03:25:00,27.0,13.4,30.29,South,179,0.0,0.0,56,0.00,,---,0.00,VWS V14.01,2013-10-15 09:25:00,
2013-10-15 03:30:00,27.0,13.4,30.29,South,179,0.0,0.0,56,0.00,,---,0.00,VWS V14.01,2013-10-15 09:30:00,
2013-10-15 03:35:00,27.0,13.4,30.29,South,179,0.0,0.0,56,0.00,,---,0.00,VWS V14.01,2013-10-15 09:35:00,
2013-10-15 03:40:00,26.8,13.2,30.29,South,179,0.0,0.0,56,0.00,,---,0.00,VWS V14.01,2013-10-15 09:40:00,
2013-10-15 03:45:00,26.8,13.2,30.29,South,179,0.0,0.0,56,0.00,,---,0.00,VWS V14.01,2013-10-15 09:45:00,
2013-10-15 03:50:00,27.1,13.9,30.29,SSW,206,0.0,0.0,57,0.00,,---,0.00,VWS V14.01,2013-10-15 09:50:00,
2013-10-15 03:55:00,27.1,13.9,30.29,SSW,206,0.0,0.0,57,0.00,,---,0.00,VWS V14.01,2013-10-15 09:55:00,
2013-10-15 04:00:00,27.3,14.1,30.29,SSW,206,0.0,0.0,57,0.00,,---,0.00,VWS V14.01,2013-10-15 10:00:00,
2013-10-15 04:05:00,27.1,13.9,30.29,SSW,206,0.0,0.0,57,0.00,,---,0.00,VWS V14.01,2013-10-15 10:05:00,
2013-10-15 04:10:00,27.0,13.8,30.29,SSW,206,0.0,0.0,57,0.00,,---,0.00,VWS V14.01,2013-10-15 10:10:00,
2013-10-15 04:15:00,26.8,13.6,30.29,SSW,206,0.0,0.0,57,0.00,,---,0.00,VWS V14.01,2013-10-15 10:15:00,
2013-10-15 04:19:00,26.4,13.3,30.29,SSW,206,0.0,0.0,57,0.00,,---,0.00,VWS V14.01,2013-10-15 10:19:00,
2013-10-15 04:24:00,26.2,13.1,30.29,SSW,206,0.0,0.0,57,0.00,,---,0.00,VWS V14.01,2013-10-15 10:24:00,
2013-10-15 04:29:00,26.1,13.3,30.29,SSW,206,0.0,0.0,58,0.00,,---,0.00,VWS V14.01,2013-10-15 10:29:00,
2013-10-15 04:34:00,26.1,13.3,30.29,SSW,206,0.0,0.0,58,0.00,,---,0.00,VWS V14.01,2013-10-15 10:34:00,
2013-10-15 04:39:00,25.9,13.1,30.29,SSW,206,0.0,0.0,58,0.00,,---,0.00,VWS V14.01,2013-10-15 10:39:00,
2013-10-15 04:44:00,25.7,13.0,30.29,SSW,206,0.0,0.0,58,0.00,,---,0.00,VWS V14.01,2013-10-15 10:44:00,
2013-10-15 04:49:00,25.9,13.1,30.29,SSW,206,0.0,0.0,58,0.00,,---,0.00,VWS V14.01,2013-10-15 10:49:00,
2013-10-15 04:54:00,25.7,13.0,30.29,SSW,206,0.0,0.0,58,0.00,,---,0.00,VWS V14.01,2013-10-15 10:54:00,
2013-10-15 04:59:00,25.3,12.6,30.29,SSW,206,0.0,0.0,58,0.00,,---,0.00,VWS V14.01,2013-10-15 10:59:00,
2013-10-15 05:04:00,25.3,12.6,30.29,SSW,206,0.0,0.0,58,0.00,,---,0.00,VWS V14.01,2013-10-15 11:04:00,
2013-10-15 05:09:00,25.2,12.5,30.29,SSW,206,0.0,0.0,58,0.00,,---,0.00,VWS V14.01,2013-10-15 11:09:00,
2013-10-15 05:14:00,25.2,12.5,30.29,SSW,206,0.0,0.0,58,0.00,,---,0.00,VWS V14.01,2013-10-15 11:14:00,
2013-10-15 05:19:00,25.3,13.0,30.29,SSW,206,0.0,0.0,59,0.00,,---,0.00,VWS V14.01,2013-10-15 11:19:00,
2013-10-15 05:24:00,25.2,12.9,30.29,SSW,206,0.0,0.0,59,0.00,,---,0.00,VWS V14.01,2013-10-15 11:24:00,
2013-10-15 05:29:00,25.2,12.9,30.29,SSW,206,0.0,0.0,59,0.00,,---,0.00,VWS V14.01,2013-10-15 11:29:00,
2013-10-15 05:34:00,25.2,12.9,30.29,SSW,206,0.0,0.0,59,0.00,,---,0.00,VWS V14.01,2013-10-15 11:34:00,
2013-10-15 05:39:00,25.2,12.9,30.29,SSW,206,0.0,0.0,59,0.00,,---,0.00,VWS V14.01,2013-10-15 11:39:00,
2013-10-15 05:44:00,25.2,12.9,30.29,SSW,204,0.0,0.0,59,0.00,,---,0.00,VWS V14.01,2013-10-15 11:44:00,
2013-10-15 05:49:00,25.3,13.0,30.29,SSW,203,0.0,0.0,59,0.00,,---,0.00,VWS V14.01,2013-10-15 11:49:00,
2013-10-15 05:54:00,25.2,12.9,30.29,SSW,204,0.0,0.0,59,0.00,,---,0.00,VWS V14.01,2013-10-15 11:54:00,
2013-10-15 05:59:00,25.0,12.7,30.29,SSW,203,0.0,0.0,59,0.00,,---,0.00,VWS V14.01,2013-10-15 11:59:00,
2013-10-15 06:04:00,25.0,12.7,30.29,SSW,203,0.0,0.0,59,0.00,,---,0.00,VWS V14.01,2013-10-15 12:04:00,
2013-10-15 06:09:00,25.0,12.7,30.29,SSW,203,0.0,0.0,59,0.00,,---,0.00,VWS V14.01,2013-10-15 12:09:00,
2013-10-15 06:14:00,25.0,12.7,30.29,SSW,203,0.0,0.0,59,0.00,,---,0.00,VWS V14.01,2013-10-15 12:14:00,
2013-10-15 06:19:00,24.6,12.4,30.29,SSW,203,0.0,0.0,59,0.00,,---,0.00,VWS V14.01,2013-10-15 12:19:00,
2013-10-15 06:24:00,24.6,12.7,30.29,SSW,203,0.0,0.0,60,0.00,,---,0.00,VWS V14.01,2013-10-15 12:24:00,
2013-10-15 06:29:00,24.6,12.7,30.29,SSW,203,0.0,0.0,60,0.00,,---,0.00,VWS V14.01,2013-10-15 12:29:00,
2013-10-15 06:34:00,24.4,12.6,30.29,SSW,203,0.0,0.0,60,0.00,,---,0.00,VWS V14.01,2013-10-15 12:34:00,
2013-10-15 06:39:00,24.3,12.0,30.29,SSW,203,0.0,0.0,59,0.00,,---,0.00,VWS V14.01,2013-10-15 12:39:00,
2013-10-15 06:44:00,24.3,12.4,30.29,SSW,203,0.0,0.0,60,0.00,,---,0.00,VWS V14.01,2013-10-15 12:44:00,
2013-10-15 06:49:00,24.3,12.4,30.29,SSW,203,0.0,0.0,60,0.00,,---,0.00,VWS V14.01,2013-10-15 12:49:00,
2013-10-15 06:54:00,23.9,12.1,30.29,SSW,203,0.0,0.0,60,0.00,,---,0.00,VWS V14.01,2013-10-15 12:54:00,
2013-10-15 06:59:00,23.9,12.1,30.29,SSW,203,0.0,0.0,60,0.00,,---,0.00,VWS V14.01,2013-10-15 12:59:00,
2013-10-15 07:04:00,23.9,12.1,30.29,SSW,203,0.0,0.0,60,0.00,,---,0.00,VWS V14.01,2013-10-15 13:04:00,
2013-10-15 07:09:00,23.9,12.1,30.29,SSW,203,0.0,0.0,60,0.00,,---,0.00,VWS V14.01,2013-10-15 13:09:00,
2013-10-15 07:14:00,23.9,12.1,30.29,SSW,203,0.0,0.0,60,0.00,,---,0.00,VWS V14.01,2013-10-15 13:14:00,
2013-10-15 07:19:00,24.1,12.6,30.29,SSW,203,0.0,0.0,61,0.00,,---,0.00,VWS V14.01,2013-10-15 13:19:00,
2013-10-15 07:24:00,24.3,12.4,30.29,SSW,203,0.0,0.0,60,0.00,,---,0.00,VWS V14.01,2013-10-15 13:24:00,
2013-10-15 07:29:00,23.9,12.1,30.29,SSW,204,0.0,0.0,60,0.00,,---,0.00,VWS V14.01,2013-10-15 13:29:00,
2013-10-15 07:34:00,23.7,11.9,30.29,SSW,203,0.0,0.0,60,0.00,,---,0.00,VWS V14.01,2013-10-15 13:34:00,
2013-10-15 07:39:00,23.4,11.5,30.29,SSW,204,0.0,0.0,60,0.00,,---,0.00,VWS V14.01,2013-10-15 13:39:00,
2013-10-15 07:44:00,23.5,11.7,30.29,SSW,203,0.0,0.0,60,0.00,,---,0.00,VWS V14.01,2013-10-15 13:44:00,
2013-10-15 07:49:00,23.5,12.1,30.29,SSW,197,0.0,0.0,61,0.00,,---,0.00,VWS V14.01,2013-10-15 13:49:00,
2013-10-15 07:54:00,23.9,12.4,30.29,SSW,197,0.0,0.0,61,0.00,,---,0.00,VWS V14.01,2013-10-15 13:54:00,
2013-10-15 07:59:00,23.7,12.2,30.29,SSW,197,0.0,0.0,61,0.00,,---,0.00,VWS V14.01,2013-10-15 13:59:00,
2013-10-15 08:04:00,23.7,12.2,30.29,SSW,197,0.0,0.0,61,0.00,,---,0.00,VWS V14.01,2013-10-15 14:04:00,
2013-10-15 08:09:00,23.7,12.2,30.29,SSW,197,0.0,0.0,61,0.00,,---,0.00,VWS V14.01,2013-10-15 14:09:00,
2013-10-15 08:14:00,23.9,12.4,30.29,SSW,197,0.0,0.0,61,0.00,,---,0.00,VWS V14.01,2013-10-15 14:14:00,
2013-10-15 08:19:00,24.3,13.1,30.29,SSW,197,0.0,0.0,62,0.00,,---,0.00,VWS V14.01,2013-10-15 14:19:00,
2013-10-15 08:24:00,24.8,13.6,30.29,SSW,197,0.0,0.0,62,0.00,,---,0.00,VWS V14.01,2013-10-15 14:24:00,
2013-10-15 08:29:00,25.5,14.3,30.29,SSW,197,0.0,0.0,62,0.00,,---,0.00,VWS V14.01,2013-10-15 14:29:00,
2013-10-15 08:34:00,27.0,16.1,30.29,SSW,197,0.0,0.0,63,0.00,,---,0.00,VWS V14.01,2013-10-15 14:34:00,
2013-10-15 08:39:00,28.6,17.6,30.29,SSW,197,0.0,0.0,63,0.00,,---,0.00,VWS V14.01,2013-10-15 14:39:00,
2013-10-15 08:44:00,30.0,19.0,30.29,SSW,197,0.0,0.0,63,0.00,,---,0.00,VWS V14.01,2013-10-15 14:44:00,
2013-10-15 08:49:00,31.1,20.0,30.29,SSW,197,0.0,0.0,63,0.00,,---,0.00,VWS V14.01,2013-10-15 14:49:00,
2013-10-15 08:54:00,32.7,21.9,30.29,SSW,197,0.0,0.0,64,0.00,,---,0.00,VWS V14.01,2013-10-15 14:54:00,
2013-10-15 08:59:00,34.0,23.1,30.29,SSW,197,0.0,0.0,64,0.00,,---,0.00,VWS V14.01,2013-10-15 14:59:00,
2013-10-15 09:04:00,35.4,24.5,30.29,SSW,197,0.0,0.0,64,0.00,,---,0.00,VWS V14.01,2013-10-15 15:04:00,
2013-10-15 09:09:00,36.3,25.0,30.29,South,179,0.0,3.1,63,0.00,,---,0.00,VWS V14.01,2013-10-15 15:09:00,
2013-10-15 09:14:00,37.2,25.4,30.29,SSW,196,2.2,3.6,62,0.00,,---,0.00,VWS V14.01,2013-10-15 15:14:00,
2013-10-15 09:19:00,38.1,25.9,30.29,SSW,196,0.0,2.2,61,0.00,,---,0.00,VWS V14.01,2013-10-15 15:19:00,
2013-10-15 09:24:00,38.7,26.0,30.29,South,170,2.2,3.6,60,0.00,,---,0.00,VWS V14.01,2013-10-15 15:24:00,
2013-10-15 09:29:00,39.2,26.1,30.29,SE,145,2.7,3.6,59,0.00,,---,0.00,VWS V14.01,2013-10-15 15:29:00,
2013-10-15 09:34:00,39.7,26.6,30.29,SE,145,0.0,2.7,59,0.00,,---,0.00,VWS V14.01,2013-10-15 15:34:00,
2013-10-15 09:39:00,40.5,26.9,30.29,SE,134,0.0,2.7,58,0.00,,---,0.00,VWS V14.01,2013-10-15 15:39:00,
2013-10-15 09:44:00,41.0,27.0,30.29,SE,136,2.7,3.6,57,0.00,,---,0.00,VWS V14.01,2013-10-15 15:44:00,
2013-10-15 09:49:00,41.4,26.4,30.29,ESE,122,0.0,3.6,55,0.00,,---,0.00,VWS V14.01,2013-10-15 15:49:00,
2013-10-15 09:54:00,42.3,27.3,30.29,ESE,107,0.0,3.6,55,0.00,,---,0.00,VWS V14.01,2013-10-15 15:54:00,
2013-10-15 09:59:00,43.0,26.6,30.29,SE,126,3.1,3.6,52,0.00,,---,0.00,VWS V14.01,2013-10-15 15:59:00,
2013-10-15 10:04:00,43.2,25.8,30.29,SE,145,3.6,4.9,50,0.00,,---,0.00,VWS V14.01,2013-10-15 16:04:00,
2013-10-15 10:09:00,43.5,26.1,30.29,SE,136,2.2,4.9,50,0.00,,---,0.00,VWS V14.01,2013-10-15 16:09:00,
2013-10-15 10:14:00,44.2,26.3,30.29,SE,143,2.7,4.9,49,0.00,,---,0.00,VWS V14.01,2013-10-15 16:14:00,
2013-10-15 10:19:00,45.1,26.1,30.29,SE,130,2.2,3.1,47,0.00,,---,0.00,VWS V14.01,2013-10-15 16:19:00,
2013-10-15 10:24:00,46.0,24.8,30.29,ESE,109,3.6,3.6,43,0.00,,---,0.00,VWS V14.01,2013-10-15 16:24:00,
2013-10-15 10:29:00,46.4,23.4,30.29,SE,139,3.1,3.6,40,0.00,,---,0.00,VWS V14.01,2013-10-15 16:29:00,
2013-10-15 10:34:00,46.6,23.6,30.29,East,94,2.2,3.6,40,0.00,,---,0.00,VWS V14.01,2013-10-15 16:34:00,
2013-10-15 10:39:00,47.7,24.5,30.26,SSE,150,0.0,3.6,40,0.00,,---,0.00,VWS V14.01,2013-10-15 16:39:00,
2013-10-15 10:44:00,48.7,24.3,30.26,ESE,112,2.2,3.6,38,0.00,,---,0.00,VWS V14.01,2013-10-15 16:44:00,
2013-10-15 10:49:00,48.7,23.6,30.26,ESE,116,0.0,3.6,37,0.00,,---,0.00,VWS V14.01,2013-10-15 16:49:00,
2013-10-15 10:54:00,49.6,24.5,30.26,SE,136,0.0,3.6,37,0.00,,---,0.00,VWS V14.01,2013-10-15 16:54:00,
2013-10-15 10:59:00,50.4,24.4,30.26,ESE,116,2.7,3.6,36,0.00,,---,0.00,VWS V14.01,2013-10-15 16:59:00,
2013-10-15 11:04:00,50.2,20.7,30.26,SSE,150,0.0,5.8,31,0.00,,---,0.00,VWS V14.01,2013-10-15 17:04:00,
2013-10-15 11:09:00,50.4,20.9,30.26,SSE,166,4.0,5.8,31,0.00,,---,0.00,VWS V14.01,2013-10-15 17:09:00,
2013-10-15 11:14:00,51.4,22.6,30.26,East,92,2.7,5.8,32,0.00,,---,0.00,VWS V14.01,2013-10-15 17:14:00,
2013-10-15 11:19:00,52.0,20.7,30.26,NE,54,4.0,4.0,29,0.00,,---,0.00,VWS V14.01,2013-10-15 17:19:00,
2013-10-15 11:24:00,51.6,20.4,30.26,East,90,4.0,4.9,29,0.00,,---,0.00,VWS V14.01,2013-10-15 17:24:00,
2013-10-15 11:29:00,51.4,20.3,30.26,ESE,112,4.0,5.4,29,0.00,,---,0.00,VWS V14.01,2013-10-15 17:29:00,
2013-10-15 11:34:00,51.3,20.1,30.26,ESE,110,4.0,6.3,29,0.00,,---,0.00,VWS V14.01,2013-10-15 17:34:00,
2013-10-15 11:39:00,51.8,19.8,30.26,East,82,4.9,6.3,28,0.00,,---,0.00,VWS V14.01,2013-10-15 17:39:00,
2013-10-15 11:44:00,52.3,20.2,30.26,East,82,0.0,6.3,28,0.00,,---,0.00,VWS V14.01,2013-10-15 17:44:00,
2013-10-15 11:49:00,52.5,20.4,30.26,East,89,4.5,5.4,28,0.00,,---,0.00,VWS V14.01,2013-10-15 17:49:00,
2013-10-15 11:54:00,52.7,19.7,30.23,East,83,3.1,5.4,27,0.00,,---,0.00,VWS V14.01,2013-10-15 17:54:00,
2013-10-15 11:59:00,52.9,19.8,30.23,NE,40,0.0,5.4,27,0.00,,---,0.00,VWS V14.01,2013-10-15 17:59:00,
2013-10-15 12:04:00,53.4,20.3,30.23,ENE,58,2.2,4.0,27,0.00,,---,0.00,VWS V14.01,2013-10-15 18:04:00,
2013-10-15 12:09:00,54.1,20.9,30.23,ENE,68,3.1,4.9,27,0.00,,---,0.00,VWS V14.01,2013-10-15 18:09:00,
2013-10-15 12:14:00,54.5,20.3,30.23,ENE,61,0.0,4.9,26,0.00,,---,0.00,VWS V14.01,2013-10-15 18:14:00,
2013-10-15 12:19:00,55.2,21.0,30.23,ENE,64,0.0,4.9,26,0.00,,---,0.00,VWS V14.01,2013-10-15 18:19:00,
2013-10-15 12:24:00,55.2,21.0,30.23,East,84,0.0,4.9,26,0.00,,---,0.00,VWS V14.01,2013-10-15 18:24:00,
2013-10-15 12:29:00,55.8,21.4,30.23,ESE,103,2.7,6.3,26,0.00,,---,0.00,VWS V14.01,2013-10-15 18:29:00,
2013-10-15 12:34:00,55.0,20.8,30.23,NE,50,2.7,3.6,26,0.00,,---,0.00,VWS V14.01,2013-10-15 18:34:00,
2013-10-15 12:39:00,55.8,21.4,30.23,NE,48,0.0,3.6,26,0.00,,---,0.00,VWS V14.01,2013-10-15 18:39:00,
2013-10-15 12:44:00,55.8,20.5,30.23,ENE,59,0.0,4.0,25,0.00,,---,0.00,VWS V14.01,2013-10-15 18:44:00,
2013-10-15 12:49:00,56.1,20.8,30.23,ESE,103,0.0,4.0,25,0.00,,---,0.00,VWS V14.01,2013-10-15 18:49:00,
2013-10-15 12:54:00,56.3,21.0,30.23,ENE,69,2.7,4.0,25,0.00,,---,0.00,VWS V14.01,2013-10-15 18:54:00,
2013-10-15 12:59:00,55.8,20.5,30.23,North,353,2.2,4.0,25,0.00,,---,0.00,VWS V14.01,2013-10-15 18:59:00,
2013-10-15 13:04:00,55.9,20.6,30.23,ENE,70,2.7,4.0,25,0.00,,---,0.00,VWS V14.01,2013-10-15 19:04:00,
2013-10-15 13:09:00,56.3,21.0,30.20,NE,39,2.7,5.4,25,0.00,,---,0.00,VWS V14.01,2013-10-15 19:09:00,
2013-10-15 13:14:00,56.3,21.0,30.20,ENE,68,0.0,5.4,25,0.00,,---,0.00,VWS V14.01,2013-10-15 19:14:00,
2013-10-15 13:19:00,57.4,21.9,30.20,NNE,18,2.7,3.1,25,0.00,,---,0.00,VWS V14.01,2013-10-15 19:19:00,
2013-10-15 13:24:00,56.3,21.0,30.20,NW,323,0.0,3.1,25,0.00,,---,0.00,VWS V14.01,2013-10-15 19:24:00,
2013-10-15 13:29:00,55.6,20.3,30.20,North,3,0.0,3.6,25,0.00,,---,0.00,VWS V14.01,2013-10-15 19:29:00,
2013-10-15 13:34:00,56.3,21.0,30.20,NE,40,0.0,2.7,25,0.00,,---,0.00,VWS V14.01,2013-10-15 19:34:00,
2013-10-15 13:39:00,57.0,21.6,30.20,ENE,61,3.6,4.9,25,0.00,,---,0.00,VWS V14.01,2013-10-15 19:39:00,
2013-10-15 13:44:00,57.7,22.2,30.20,East,84,3.1,5.8,25,0.00,,---,0.00,VWS V14.01,2013-10-15 19:44:00,
2013-10-15 13:49:00,58.5,22.8,30.20,ENE,78,3.1,4.0,25,0.00,,---,0.00,VWS V14.01,2013-10-15 19:49:00,
2013-10-15 13:54:00,59.4,22.6,30.20,East,98,2.2,4.0,24,0.00,,---,0.00,VWS V14.01,2013-10-15 19:54:00,
2013-10-15 13:59:00,59.4,22.6,30.20,ENE,74,0.0,5.8,24,0.00,,---,0.00,VWS V14.01,2013-10-15 19:59:00,
2013-10-15 14:04:00,59.4,22.6,30.20,ESE,120,0.0,0.0,24,0.00,,---,0.00,VWS V14.01,2013-10-15 20:04:00,
2013-10-15 14:09:00,58.6,22.0,30.17,North,0,0.0,0.0,24,0.00,,---,0.00,VWS V14.01,2013-10-15 20:09:00,
2013-10-15 14:14:00,58.3,19.6,30.17,North,1,0.0,0.0,22,0.00,,---,0.00,VWS V14.01,2013-10-15 20:14:00,
2013-10-15 14:19:00,57.9,19.3,30.17,NW,316,0.0,0.0,22,0.00,,---,0.00,VWS V14.01,2013-10-15 20:19:00,
2013-10-15 14:24:00,59.4,22.6,30.17,East,97,3.6,3.6,24,0.00,,---,0.00,VWS V14.01,2013-10-15 20:24:00,
2013-10-15 14:29:00,60.4,21.4,30.17,ENE,65,3.6,4.0,22,0.00,,---,0.00,VWS V14.01,2013-10-15 20:29:00,
2013-10-15 14:34:00,60.1,21.1,30.17,NE,45,2.2,5.4,22,0.00,,---,0.00,VWS V14.01,2013-10-15 20:34:00,
2013-10-15 14:39:00,60.8,20.6,30.17,WSW,257,0.0,5.4,21,0.00,,---,0.00,VWS V14.01,2013-10-15 20:39:00,
2013-10-15 14:44:00,59.9,17.6,30.17,NNE,12,0.0,5.4,19,0.00,,---,0.00,VWS V14.01,2013-10-15 20:44:00,
2013-10-15 14:49:00,59.7,20.8,30.17,NE,54,0.0,3.6,22,0.00,,---,0.00,VWS V14.01,2013-10-15 20:49:00,
2013-10-15 14:54:00,59.7,20.8,30.17,East,79,2.7,3.6,22,0.00,,---,0.00,VWS V14.01,2013-10-15 20:54:00,
2013-10-15 14:59:00,60.1,17.7,30.17,NE,40,0.0,3.6,19,0.00,,---,0.00,VWS V14.01,2013-10-15 20:59:00,
2013-10-15 15:04:00,61.0,20.8,30.17,NE,44,0.0,0.0,21,0.00,,---,0.00,VWS V14.01,2013-10-15 21:04:00,
2013-10-15 15:09:00,62.1,19.3,30.17,SE,127,2.7,4.0,19,0.00,,---,0.00,VWS V14.01,2013-10-15 21:09:00,
2013-10-15 15:14:00,61.3,18.8,30.17,East,87,0.0,4.0,19,0.00,,---,0.00,VWS V14.01,2013-10-15 21:14:00,
2013-10-15 15:19:00,61.7,19.0,30.17,SE,146,4.0,4.9,19,0.00,,---,0.00,VWS V14.01,2013-10-15 21:19:00,
2013-10-15 15:24:00,61.5,18.9,30.14,South,180,2.2,4.9,19,0.00,,---,0.00,VWS V14.01,2013-10-15 21:24:00,
2013-10-15 15:29:00,62.2,19.5,30.14,WSW,237,0.0,4.9,19,0.00,,---,0.00,VWS V14.01,2013-10-15 21:29:00,
2013-10-15 15:34:00,61.7,19.0,30.14,ENE,57,2.7,3.6,19,0.00,,---,0.00,VWS V14.01,2013-10-15 21:34:00,
2013-10-15 15:39:00,62.1,19.3,30.14,East,101,0.0,4.0,19,0.00,,---,0.00,VWS V14.01,2013-10-15 21:39:00,
2013-10-15 15:44:00,61.9,19.2,30.14,East,91,0.0,4.0,19,0.00,,---,0.00,VWS V14.01,2013-10-15 21:44:00,
2013-10-15 15:49:00,61.9,19.2,30.14,ENE,76,0.0,2.7,19,0.00,,---,0.00,VWS V14.01,2013-10-15 21:49:00,
2013-10-15 15:54:00,62.4,19.6,30.14,East,81,2.7,4.0,19,0.00,,---,0.00,VWS V14.01,2013-10-15 21:54:00,
2013-10-15 15:59:00,61.5,18.9,30.14,ENE,63,0.0,4.0,19,0.00,,---,0.00,VWS V14.01,2013-10-15 21:59:00,
2013-10-15 16:04:00,60.1,17.7,30.14,North,0,0.0,0.0,19,0.00,,---,0.00,VWS V14.01,2013-10-15 22:04:00,
2013-10-15 16:09:00,60.6,18.2,30.14,NE,54,0.0,0.0,19,0.00,,---,0.00,VWS V14.01,2013-10-15 22:09:00,
2013-10-15 16:14:00,59.7,17.4,30.14,NNE,15,0.0,0.0,19,0.00,,---,0.00,VWS V14.01,2013-10-15 22:14:00,
2013-10-15 16:19:00,59.4,17.1,30.14,West,271,0.0,0.0,19,0.00,,---,0.00,VWS V14.01,2013-10-15 22:19:00,
2013-10-15 16:24:00,59.9,17.6,30.14,NW,310,0.0,0.0,19,0.00,,---,0.00,VWS V14.01,2013-10-15 22:24:00,
2013-10-15 16:29:00,59.9,17.6,30.14,NW,321,0.0,0.0,19,0.00,,---,0.00,VWS V14.01,2013-10-15 22:29:00,
2013-10-15 16:34:00,60.1,17.7,30.14,NW,325,0.0,0.0,19,0.00,,---,0.00,VWS V14.01,2013-10-15 22:34:00,
2013-10-15 16:39:00,59.4,17.1,30.11,North,353,0.0,0.0,19,0.00,,---,0.00,VWS V14.01,2013-10-15 22:39:00,
2013-10-15 16:44:00,59.4,17.1,30.11,North,2,0.0,0.0,19,0.00,,---,0.00,VWS V14.01,2013-10-15 22:44:00,
2013-10-15 16:49:00,60.3,17.9,30.11,ESE,104,0.0,0.0,19,0.00,,---,0.00,VWS V14.01,2013-10-15 22:49:00,
2013-10-15 16:54:00,61.0,18.5,30.11,East,99,0.0,0.0,19,0.00,,---,0.00,VWS V14.01,2013-10-15 22:54:00,
2013-10-15 16:59:00,61.3,18.8,30.11,ENE,70,0.0,0.0,19,0.00,,---,0.00,VWS V14.01,2013-10-15 22:59:00,
2013-10-15 17:04:00,59.5,17.3,30.11,NE,54,0.0,0.0,19,0.00,,---,0.00,VWS V14.01,2013-10-15 23:04:00,
2013-10-15 17:09:00,59.0,16.8,30.11,NE,54,0.0,0.0,19,0.00,,---,0.00,VWS V14.01,2013-10-15 23:09:00,
2013-10-15 17:14:00,58.6,16.5,30.11,NE,54,0.0,0.0,19,0.00,,---,0.00,VWS V14.01,2013-10-15 23:14:00,
2013-10-15 17:19:00,58.3,16.2,30.11,North,11,0.0,0.0,19,0.00,,---,0.00,VWS V14.01,2013-10-15 23:19:00,
2013-10-15 17:24:00,57.9,15.9,30.11,North,11,0.0,0.0,19,0.00,,---,0.00,VWS V14.01,2013-10-15 23:24:00,
2013-10-15 17:29:00,57.0,16.4,30.11,NNE,17,0.0,0.0,20,0.00,,---,0.00,VWS V14.01,2013-10-15 23:29:00,
2013-10-15 17:34:00,56.1,15.6,30.11,NNE,17,0.0,0.0,20,0.00,,---,0.00,VWS V14.01,2013-10-15 23:34:00,
2013-10-15 17:39:00,55.4,15.0,30.11,NNE,17,0.0,0.0,20,0.00,,---,0.00,VWS V14.01,2013-10-15 23:39:00,
2013-10-15 17:44:00,54.0,13.8,30.11,NNE,17,0.0,0.0,20,0.00,,---,0.00,VWS V14.01,2013-10-15 23:44:00,
2013-10-15 17:49:00,52.5,13.7,30.11,West,261,0.0,0.0,21,0.00,,---,0.00,VWS V14.01,2013-10-15 23:49:00,
2013-10-15 17:54:00,50.9,15.4,30.11,West,278,0.0,0.0,24,0.00,,---,0.00,VWS V14.01,2013-10-15 23:54:00,
2013-10-15 17:59:00,49.6,14.3,30.11,West,271,0.0,3.1,24,0.00,,---,0.00,VWS V14.01,2013-10-15 23:59:00,
2013-10-15 18:04:00,48.7,15.4,30.11,West,263,0.0,4.0,26,0.00,,---,0.00,VWS V14.01,2013-10-16 00:04:00,
2013-10-15 18:09:00,47.8,15.5,30.11,WSW,255,3.1,4.0,27,0.00,,---,0.00,VWS V14.01,2013-10-16 00:09:00,
2013-10-15 18:14:00,47.1,14.9,30.11,West,270,3.1,4.0,27,0.00,,---,0.00,VWS V14.01,2013-10-16 00:14:00,
2013-10-15 18:19:00,46.6,15.2,30.11,SW,228,0.0,4.0,28,0.00,,---,0.00,VWS V14.01,2013-10-16 00:19:00,
2013-10-15 18:24:00,46.0,14.8,30.11,West,268,0.0,4.0,28,0.00,,---,0.00,VWS V14.01,2013-10-16 00:24:00,
2013-10-15 18:29:00,45.3,14.9,30.11,West,277,0.0,4.0,29,0.00,,---,0.00,VWS V14.01,2013-10-16 00:29:00,
2013-10-15 18:34:00,44.6,14.3,30.11,West,274,0.0,3.1,29,0.00,,---,0.00,VWS V14.01,2013-10-16 00:34:00,
2013-10-15 18:39:00,43.9,15.2,30.11,West,274,0.0,3.1,31,0.00,,---,0.00,VWS V14.01,2013-10-16 00:39:00,
2013-10-15 18:44:00,43.3,14.8,30.11,West,268,0.0,3.1,31,0.00,,---,0.00,VWS V14.01,2013-10-16 00:44:00,
2013-10-15 18:49:00,42.8,15.0,30.11,West,268,0.0,0.0,32,0.00,,---,0.00,VWS V14.01,2013-10-16 00:49:00,
2013-10-15 18:54:00,42.3,15.2,30.11,West,261,0.0,0.0,33,0.00,,---,0.00,VWS V14.01,2013-10-16 00:54:00,
2013-10-15 18:59:00,41.7,15.4,30.11,West,262,0.0,0.0,34,0.00,,---,0.00,VWS V14.01,2013-10-16 00:59:00,
2013-10-15 19:04:00,41.4,15.1,30.11,WSW,253,0.0,0.0,34,0.00,,---,0.00,VWS V14.01,2013-10-16 01:04:00,
2013-10-15 19:09:00,40.8,15.3,30.11,West,266,0.0,3.6,35,0.00,,---,0.00,VWS V14.01,2013-10-16 01:09:00,
2013-10-15 19:14:00,40.5,15.6,30.11,West,266,0.0,3.6,36,0.00,,---,0.00,VWS V14.01,2013-10-16 01:14:00,
2013-10-15 19:19:00,40.1,15.9,30.11,West,262,0.0,0.0,37,0.00,,---,0.00,VWS V14.01,2013-10-16 01:19:00,
2013-10-15 19:24:00,39.7,15.6,30.11,West,263,0.0,0.0,37,0.00,,---,0.00,VWS V14.01,2013-10-16 01:24:00,
2013-10-15 19:29:00,39.2,15.7,30.11,West,273,0.0,0.0,38,0.00,,---,0.00,VWS V14.01,2013-10-16 01:29:00,
2013-10-15 19:34:00,38.8,16.0,30.11,West,266,0.0,0.0,39,0.00,,---,0.00,VWS V14.01,2013-10-16 01:34:00,
2013-10-15 19:38:00,38.8,16.0,30.11,WSW,257,0.0,0.0,39,0.00,,---,0.00,VWS V14.01,2013-10-16 01:38:00,
2013-10-15 19:43:00,38.5,15.7,30.11,South,175,0.0,0.0,39,0.00,,---,0.00,VWS V14.01,2013-10-16 01:43:00,
2013-10-15 19:48:00,37.6,14.9,30.11,SSW,206,2.2,3.6,39,0.00,,---,0.00,VWS V14.01,2013-10-16 01:48:00,
2013-10-15 19:53:00,37.2,15.1,30.11,SSW,206,0.0,3.6,40,0.00,,---,0.00,VWS V14.01,2013-10-16 01:53:00,
2013-10-15 19:58:00,37.0,15.0,30.11,SSW,203,0.0,3.6,40,0.00,,---,0.00,VWS V14.01,2013-10-16 01:58:00,
2013-10-15 20:04:00,36.9,14.8,30.11,South,180,3.1,3.1,40,0.00,,---,0.00,VWS V14.01,2013-10-16 02:04:00,
2013-10-15 20:09:00,36.1,14.2,30.11,SW,224,0.0,3.1,40,0.00,,---,0.00,VWS V14.01,2013-10-16 02:09:00,
2013-10-15 20:13:00,35.8,13.8,30.11,SW,227,0.0,3.1,40,0.00,,---,0.00,VWS V14.01,2013-10-16 02:13:00,
2013-10-15 20:18:00,35.4,13.5,30.11,SW,227,0.0,0.0,40,0.00,,---,0.00,VWS V14.01,2013-10-16 02:18:00,
2013-10-15 20:23:00,35.1,13.2,30.11,SW,227,0.0,0.0,40,0.00,,---,0.00,VWS V14.01,2013-10-16 02:23:00,
2013-10-15 20:28:00,34.7,13.4,30.11,SW,228,0.0,0.0,41,0.00,,---,0.00,VWS V14.01,2013-10-16 02:28:00,
2013-10-15 20:33:00,34.5,13.8,30.11,South,171,2.2,3.1,42,0.00,,---,0.00,VWS V14.01,2013-10-16 02:33:00,
2013-10-15 20:38:00,34.3,13.6,30.11,SSW,212,3.6,3.6,42,0.00,,---,0.00,VWS V14.01,2013-10-16 02:38:00,
2013-10-15 20:43:00,33.8,13.1,30.11,SSW,212,0.0,3.6,42,0.00,,---,0.00,VWS V14.01,2013-10-16 02:43:00,
2013-10-15 20:48:00,33.6,13.0,30.11,SSW,212,0.0,0.0,42,0.00,,---,0.00,VWS V14.01,2013-10-16 02:48:00,
2013-10-15 20:53:00,33.6,13.0,30.11,SSW,212,0.0,0.0,42,0.00,,---,0.00,VWS V14.01,2013-10-16 02:53:00,
2013-10-15 20:58:00,33.4,13.4,30.11,SSW,212,0.0,0.0,43,0.00,,---,0.00,VWS V14.01,2013-10-16 02:58:00,
2013-10-15 21:03:00,33.4,13.4,30.11,SW,224,0.0,0.0,43,0.00,,---,0.00,VWS V14.01,2013-10-16 03:03:00,
2013-10-15 21:08:00,33.3,13.2,30.11,SW,225,0.0,0.0,43,0.00,,---,0.00,VWS V14.01,2013-10-16 03:08:00,
2013-10-15 21:13:00,33.3,13.7,30.11,SW,225,0.0,0.0,44,0.00,,---,0.00,VWS V14.01,2013-10-16 03:13:00,
2013-10-15 21:18:00,33.1,13.6,30.11,WSW,244,0.0,0.0,44,0.00,,---,0.00,VWS V14.01,2013-10-16 03:18:00,
2013-10-15 21:23:00,33.3,14.2,30.11,WSW,244,0.0,0.0,45,0.00,,---,0.00,VWS V14.01,2013-10-16 03:23:00,
2013-10-15 21:28:00,33.1,14.1,30.11,WSW,250,0.0,3.1,45,0.00,,---,0.00,VWS V14.01,2013-10-16 03:28:00,
2013-10-15 21:33:00,33.4,14.4,30.11,WSW,258,0.0,0.0,45,0.00,,---,0.00,VWS V14.01,2013-10-16 03:33:00,
2013-10-15 21:38:00,33.4,14.9,30.11,WSW,258,0.0,0.0,46,0.00,,---,0.00,VWS V14.01,2013-10-16 03:38:00,
2013-10-15 21:43:00,33.8,15.2,30.11,WSW,258,0.0,0.0,46,0.00,,---,0.00,VWS V14.01,2013-10-16 03:43:00,
2013-10-15 21:48:00,34.0,15.4,30.11,WSW,241,0.0,2.7,46,0.00,,---,0.00,VWS V14.01,2013-10-16 03:48:00,
2013-10-15 21:53:00,34.0,15.4,30.11,WSW,241,0.0,2.7,46,0.00,,---,0.00,VWS V14.01,2013-10-16 03:53:00,
2013-10-15 21:58:00,33.8,14.7,30.11,WSW,241,0.0,2.7,45,0.00,,---,0.00,VWS V14.01,2013-10-16 03:58:00,
2013-10-15 22:01:00,33.6,15.1,30.11,WSW,241,0.0,0.0,46,0.00,,---,0.00,VWS V14.01,2013-10-16 04:01:00,
2013-10-15 22:06:00,32.9,13.9,30.11,WSW,241,0.0,0.0,45,0.00,,---,0.00,VWS V14.01,2013-10-16 04:06:00,
2013-10-15 22:11:00,32.2,13.2,30.11,WSW,241,0.0,0.0,45,0.00,,---,0.00,VWS V14.01,2013-10-16 04:11:00,
2013-10-15 22:16:00,32.0,13.1,30.11,WSW,241,0.0,0.0,45,0.00,,---,0.00,VWS V14.01,2013-10-16 04:16:00,
2013-10-15 22:21:00,31.5,12.6,30.11,WSW,241,0.0,0.0,45,0.00,,---,0.00,VWS V14.01,2013-10-16 04:21:00,
2013-10-15 22:26:00,30.7,12.4,30.11,WSW,241,0.0,0.0,46,0.00,,---,0.00,VWS V14.01,2013-10-16 04:26:00,
2013-10-15 22:31:00,30.2,11.9,30.11,WSW,241,0.0,0.0,46,0.00,,---,0.00,VWS V14.01,2013-10-16 04:31:00,
2013-10-15 22:36:00,29.8,11.6,30.11,WSW,241,0.0,0.0,46,0.00,,---,0.00,VWS V14.01,2013-10-16 04:36:00,
2013-10-15 22:41:00,29.8,12.1,30.11,WSW,241,0.0,0.0,47,0.00,,---,0.00,VWS V14.01,2013-10-16 04:41:00,
2013-10-15 22:46:00,29.8,12.1,30.11,WSW,241,0.0,0.0,47,0.00,,---,0.00,VWS V14.01,2013-10-16 04:46:00,
2013-10-15 22:51:00,29.8,12.1,30.11,WSW,241,0.0,0.0,47,0.00,,---,0.00,VWS V14.01,2013-10-16 04:51:00,
2013-10-15 22:56:00,29.8,12.6,30.11,WSW,241,0.0,0.0,48,0.00,,---,0.00,VWS V14.01,2013-10-16 04:56:00,
2013-10-15 23:01:00,29.8,12.6,30.11,WSW,241,0.0,0.0,48,0.00,,---,0.00,VWS V14.01,2013-10-16 05:01:00,
2013-10-15 23:06:00,30.2,12.9,30.11,WSW,241,0.0,0.0,48,0.00,,---,0.00,VWS V14.01,2013-10-16 05:06:00,
2013-10-15 23:11:00,30.2,12.9,30.11,WSW,241,0.0,0.0,48,0.00,,---,0.00,VWS V14.01,2013-10-16 05:11:00,
2013-10-15 23:16:00,29.8,12.6,30.11,WSW,241,0.0,0.0,48,0.00,,---,0.00,VWS V14.01,2013-10-16 05:16:00,
2013-10-15 23:21:00,29.3,11.6,30.11,WSW,241,0.0,0.0,47,0.00,,---,0.00,VWS V14.01,2013-10-16 05:21:00,
2013-10-15 23:26:00,29.1,11.9,30.11,WSW,241,0.0,0.0,48,0.00,,---,0.00,VWS V14.01,2013-10-16 05:26:00,
2013-10-15 23:31:00,29.1,11.9,30.11,WSW,241,0.0,0.0,48,0.00,,---,0.00,VWS V14.01,2013-10-16 05:31:00,
2013-10-15 23:36:00,28.9,12.2,30.11,WSW,241,0.0,0.0,49,0.00,,---,0.00,VWS V14.01,2013-10-16 05:36:00,
2013-10-15 23:41:00,29.1,12.4,30.11,WSW,241,0.0,0.0,49,0.00,,---,0.00,VWS V14.01,2013-10-16 05:41:00,
2013-10-15 23:46:00,29.1,12.4,30.11,WSW,241,0.0,0.0,49,0.00,,---,0.00,VWS V14.01,2013-10-16 05:46:00,
2013-10-15 23:51:00,28.9,12.2,30.11,WSW,241,0.0,0.0,49,0.00,,---,0.00,VWS V14.01,2013-10-16 05:51:00,
2013-10-15 23:56:00,28.8,12.5,30.08,WSW,252,0.0,0.0,50,0.00,,---,0.00,VWS V14.01,2013-10-16 05:56:00,